Dewpoint
71 70 70 72 72 72 72 72 72 72 72 72 72 71 71 71 71 71 71 71 71 70 70 70 70 70 69 69 69 69 69 69 69 69 69 68 68 68 68 68 68 68 68 68 68 68 68 68 68 68 68 69 70 69 69 69 70 70 70 69 69 69 68 69 69 69 69 70 69 69 68 69 69 68 69 70 69 69 69 69 68 69 67 68 69
70 70 70 71 72 72 72 72 72 72 72 72 71 71 71 71 71 71 70 70 70 70 70 69 69 69 69 69 69 68 69 69 69 69 68 68 68 68 68 68 68 68 68 68 68 68 68 68 68 68 67 69 69 69 69 69 69 69 69 69 69 68 68 68 68 69 69 69 69 69 69 69 69 69 69 69 69 69 69 69 69 67 68 68 69
70 70 70 70 72 72 72 72 72 72 72 71 71 71 71 71 70 70 70 70 70 69 69 69 69 69 69 69 68 68 68 68 68 68 68 68 68 68 68 68 68 68 68 68 68 68 68 69 69 68 69 68 69 69 69 69 69 69 69 69 68 68 68 68 69 69 68 69 68 69 69 68 68 68 68 69 69 69 69 69 68 68 68 68 69
70 69 70 71 72 72 72 72 72 72 72 71 71 71 71 70 70 70 70 69 69 69 69 69 69 69 69 68 68 68 68 68 68 68 68 67 67 67 67 67 67 67 67 67 68 68 69 70 69 69 68 68 68 68 69 69 69 69 69 69 68 68 69 68 69 68 68 68 67 68 68 66 67 68 68 69 69 68 68 69 68 68 68 68 68
70 70 71 71 70 71 72 72 72 72 72 71 71 71 70 70 70 70 70 70 69 69 69 69 69 69 68 68 68 68 68 68 68 67 68 67 67 67 67 67 67 68 67 69 70 69 69 69 68 69 68 69 68 68 68 68 69 69 68 68 68 69 69 68 68 69 68 67 67 67 66 66 66 67 68 68 69 68 68 68 68 68 68 68 68
70 70 71 71 70 70 71 71 72 72 71 71 70 70 70 70 70 69 70 69 69 69 69 69 69 68 68 68 68 68 68 68 68 67 67 67 67 67 68 68 69 69 68 68 69 69 69 69 69 69 69 68 68 68 68 68 69 69 68 67 67 68 68 68 68 68 67 68 67 68 67 66 66 67 68 68 68 68 68 68 69 68 68 67 68
70 71 71 70 70 70 71 72 71 71 71 71 70 70 70 70 70 70 69 69 69 69 69 69 68 68 68 68 68 68 67 67 68 68 68 67 68 68 68 68 68 68 68 68 69 68 69 69 69 69 69 68 68 68 68 69 69 68 68 68 68 68 68 67 68 68 68 67 66 66 66 67 66 66 67 68 68 68 68 68 68 68 68 68 67
71 71 71 70 70 71 71 71 71 71 70 70 70 70 70 70 69 69 69 69 69 69 69 68 68 68 68 68 68 68 68 68 68 68 68 68 68 68 68 69 68 69 70 69 69 69 69 69 69 68 68 68 68 68 68 68 68 68 69 68 68 68 66 66 67 68 68 67 66 65 66 66 67 66 66 67 67 68 68 68 68 67 68 68 68
70 70 70 70 69 71 71 71 71 70 70 70 70 70 69 69 69 69 69 69 69 69 69 68 68 68 68 68 68 68 68 68 68 68 68 68 69 69 69 69 68 69 69 69 69 69 69 69 68 68 68 68 68 68 69 68 68 68 68 68 68 68 67 67 67 68 67 66 65 66 67 66 66 65 67 68 68 68 68 68 68 68 68 69 68
69 69 69 69 70 71 71 71 70 70 70 70 70 69 69 69 69 69 69 69 69 69 69 69 68 68 68 68 68 69 69 69 69 68 68 68 68 69 68 69 68 68 68 68 68 68 68 68 69 68 68 69 69 69 68 68 68 68 68 68 68 68 67 66 67 67 66 66 65 66 66 68 65 66 68 68 68 68 67 68 68 68 68 68 68
69 68 68 69 70 71 71 71 70 70 70 70 69 69 69 69 69 69 69 69 69 69 69 69 69 69 69 69 69 69 69 70 69 69 68 68 68 69 68 68 68 68 68 68 68 68 68 68 68 68 68 69 69 69 68 68 68 68 68 67 68 67 66 67 67 66 66 65 65 66 67 68 65 66 67 68 68 68 68 68 68 68 68 68 67
68 68 69 70 71 71 70 70 70 70 70 69 69 69 69 69 69 69 69 69 69 69 69 69 69 69 69 69 70 70 70 70 70 69 69 68 68 68 68 68 68 68 68 68 68 68 68 68 68 69 69 69 69 69 68 68 68 68 68 68 68 67 67 67 66 65 65 66 65 65 66 65 65 66 67 67 68 67 67 67 67 68 67 68 68
69 68 69 70 70 70 70 70 70 70 69 69 69 69 69 69 69 69 69 69 69 69 69 69 69 69 69 70 70 70 71 70 70 70 69 69 69 69 68 68 68 68 68 68 68 68 68 69 69 69 69 69 69 68 68 68 68 67 68 68 67 67 67 67 65 65 65 65 65 65 66 66 66 67 67 67 67 67 67 67 68 67 68 68 67
68 69 69 69 69 70 70 70 70 69 69 69 68 68 69 69 69 69 69 69 68 68 68 68 68 68 68 68 69 69 70 70 70 70 69 69 69 69 68 68 68 68 68 68 68 68 68 69 69 69 69 68 68 68 68 68 67 67 67 67 67 66 66 67 66 65 66 65 66 66 65 66 65 66 67 67 67 67 67 67 67 67 67 67 68
68 69 69 69 69 69 70 70 69 69 69 69 68 69 69 69 69 69 68 68 68 67 67 67 67 67 67 68 68 69 69 70 70 70 69 69 69 69 68 68 68 68 67 67 67 68 68 69 69 69 69 68 68 68 68 68 68 67 66 67 67 66 66 66 65 65 65 66 65 65 65 65 67 67 66 68 66 66 67 67 66 66 66 67 67
70 69 69 69 68 69 69 70 69 69 69 68 68 69 69 69 68 67 67 67 67 66 66 66 65 65 65 66 66 66 67 68 69 70 70 69 69 68 68 68 68 68 68 68 68 68 68 69 69 69 69 68 68 68 68 68 68 67 65 66 65 66 66 66 65 65 65 65 65 65 65 65 66 67 67 67 66 66 66 66 66 66 66 66 66
70 69 68 69 69 68 69 69 69 69 69 68 69 69 68 68 68 67 66 66 66 66 66 65 65 64 65 65 65 65 66 67 67 69 70 69 69 68 68 68 68 68 68 68 68 68 68 69 69 69 69 68 68 68 67 67 67 66 67 64 66 65 66 65 63 64 63 64 64 64 64 64 64 64 64 64 65 66 66 66 66 66 65 65 65
69 69 68 69 68 69 69 69 69 68 68 69 69 69 68 68 67 67 67 66 66 67 66 66 65 64 64 63 64 66 66 66 66 68 70 70 69 68 68 68 68 68 68 68 68 68 68 68 68 68 68 68 67 67 67 67 67 67 68 67 66 64 66 65 61 61 62 63 62 64 63 63 63 64 63 63 64 65 65 65 64 64 64 64 64
69 69 68 68 68 69 68 68 68 68 68 68 68 67 68 68 67 67 67 67 66 65 65 64 64 64 64 64 64 64 64 65 66 65 69 70 69 68 68 68 68 68 68 68 68 68 68 68 68 68 67 66 66 66 66 66 66 67 67 66 68 61 62 61 59 59 61 60 61 61 61 64 64 63 63 63 64 64 65 64 64 64 64 63 62
69 68 68 68 68 68 68 67 67 68 68 66 66 66 67 67 67 67 67 66 66 64 64 63 63 64 64 63 62 63 64 63 65 63 66 68 68 67 68 68 68 68 68 68 68 68 68 68 68 67 67 66 65 65 65 66 66 67 66 66 63 63 60 60 60 60 61 61 61 61 64 64 63 63 62 62 63 63 63 63 63 63 63 63 62
68 69 68 68 69 69 68 67 67 67 66 64 65 65 65 67 66 66 66 66 65 64 63 63 63 63 63 64 64 65 66 65 64 62 65 66 69 69 67 68 68 68 68 68 68 68 68 68 68 67 66 66 66 64 64 64 64 65 65 65 61 60 61 61 61 61 61 62 62 62 64 64 64 63 63 63 63 63 62 62 62 62 62 62 62
66 66 69 68 68 68 68 68 68 67 65 63 61 63 65 65 64 65 64 65 64 63 64 63 63 64 63 65 66 67 68 65 69 64 65 64 65 69 68 68 68 68 68 68 68 68 68 68 67 67 67 65 65 62 64 63 64 65 65 67 58 61 62 62 62 62 62 62 63 63 64 64 64 63 63 62 63 63 62 62 62 61 61 61 61
65 66 66 68 68 67 68 67 68 67 64 63 63 64 61 62 61 61 62 63 61 63 62 64 62 58 59 58 63 66 64 58 62 62 65 62 64 67 68 67 68 68 68 68 68 68 68 68 68 67 66 66 65 57 59 59 63 63 65 63 60 60 61 62 62 62 62 63 63 65 65 64 64 63 62 61 61 61 62 61 61 61 61 60 59
64 65 66 68 67 67 67 67 67 67 64 63 63 63 62 62 62 62 63 64 64 64 64 66 59 64 56 68 66 65 64 64 57 62 61 63 62 65 69 67 67 68 68 68 68 68 68 68 68 67 66 63 62 60 58 60 59 61 60 58 59 59 60 62 62 62 62 63 63 65 64 64 64 63 61 61 61 60 61 60 60 60 61 60 60
65 65 65 67 67 68 68 67 67 65 64 63 63 62 63 61 62 63 63 66 65 64 64 64 65 66 59 65 58 65 63 63 65 61 62 62 61 63 66 67 67 68 67 67 68 67 67 65 64 66 63 62 61 59 63 59 59 56 58 57 57 59 59 60 60 60 62 63 64 65 64 64 64 62 61 60 60 60 60 60 60 60 60 60 59
65 64 65 65 67 67 68 68 67 65 65 64 62 62 64 64 65 66 70 65 63 65 64 62 63 63 63 57 64 64 63 64 62 62 60 62 62 61 62 66 66 66 68 69 68 67 65 61 61 62 62 61 58 61 62 62 56 58 55 56 56 57 57 58 60 60 62 63 63 65 65 64 63 62 61 60 59 59 60 60 60 59 59 58 59
64 63 65 66 67 68 68 67 67 66 65 64 63 63 65 66 66 64 64 63 63 61 62 58 61 63 60 59 62 58 64 63 65 62 63 64 63 63 60 63 64 65 66 67 66 66 66 70 65 62 60 56 56 57 57 58 58 50 52 51 53 55 56 56 57 59 60 61 62 64 64 63 63 61 61 60 60 60 59 59 58 58 59 59 59
63 63 64 65 66 67 68 68 67 67 66 61 63 62 65 65 64 65 63 65 65 66 59 62 63 60 63 65 62 61 67 62 62 60 61 60 64 61 61 60 63 64 65 67 67 67 65 68 65 62 59 57 52 57 58 57 57 55 51 52 52 54 56 56 58 59 60 61 62 62 62 62 62 62 61 61 60 60 60 59 58 58 59 59 59
63 64 64 65 65 66 66 66 65 65 66 65 63 64 63 63 61 61 62 63 60 61 62 62 70 59 60 62 59 67 64 60 58 55 62 63 63 63 63 61 61 62 64 65 64 65 68 68 67 63 61 58 58 60 59 55 58 56 53 48 51 54 56 57 58 58 59 60 60 61 61 61 61 60 60 60 60 59 59 59 59 58 59 59 58
63 65 65 65 63 63 63 65 66 65 65 65 67 64 64 65 62 64 65 65 59 59 65 58 66 61 56 56 58 56 56 57 61 62 51 60 69 63 64 61 65 64 63 64 64 67 69 68 65 62 57 55 56 60 60 58 54 55 48 51 49 49 55 56 57 56 57 59 60 60 61 60 60 59 59 58 59 58 58 58 58 58 57 57 57
64 64 64 63 64 63 63 63 64 67 66 66 66 65 67 67 62 62 60 60 64 66 64 60 65 65 59 58 56 55 56 53 58 58 69 60 62 63 62 62 68 62 63 62 64 64 67 67 64 62 55 59 58 58 59 59 55 51 57 49 53 54 50 54 53 55 55 55 57 58 59 59 58 57 56 58 59 58 58 58 58 58 57 56 56
62 63 63 64 64 63 64 63 65 67 67 65 65 63 65 63 64 60 63 62 69 61 60 58 64 58 59 60 63 65 65 57 60 57 62 60 64 63 62 60 67 65 62 61 61 62 64 65 65 61 58 64 58 61 62 61 58 50 54 51 51 53 51 48 46 52 52 52 51 53 56 56 57 57 57 57 58 58 57 57 57 57 58 57 55
61 63 63 64 64 65 64 66 66 67 66 64 63 64 65 62 63 63 62 63 65 68 61 58 62 62 60 58 61 60 66 59 61 62 59 61 61 64 63 63 63 67 69 64 57 62 62 65 64 61 66 63 60 62 55 62 61 56 56 57 60 55 49 45 47 42 50 50 50 50 52 54 54 56 57 57 57 57 56 56 57 57 57 57 57
60 61 63 64 63 63 64 64 66 65 66 65 65 63 65 64 66 64 63 63 67 62 64 60 64 62 63 59 59 59 60 62 60 65 63 59 65 65 63 63 63 64 68 60 67 65 65 63 62 64 62 62 60 61 62 59 60 60 58 55 54 59 51 47 46 44 39 42 49 49 50 52 55 56 57 57 57 57 57 57 57 57 57 57 57
62 61 61 62 64 62 64 64 66 66 64 63 62 64 64 62 63 62 64 67 61 67 61 63 63 61 55 56 61 59 61 62 61 64 62 61 60 64 63 62 65 68 67 65 66 65 65 64 64 61 64 64 56 56 56 59 59 57 58 62 59 51 59 50 46 41 38 39 42 47 51 53 53 54 55 56 57 56 56 56 55 56 55 57 57
62 62 62 63 62 63 65 65 67 66 65 66 65 65 64 64 63 62 64 62 67 58 63 61 58 54 63 57 60 59 59 61 61 62 64 62 57 61 61 61 64 68 67 64 60 61 61 63 63 62 66 57 58 59 61 60 60 57 58 64 64 62 57 55 51 39 38 40 40 46 47 50 52 54 56 54 55 55 55 54 55 54 55 55 56
63 63 63 63 62 62 65 67 66 65 66 65 64 65 65 62 64 62 57 61 65 61 62 62 61 55 60 56 57 59 61 60 62 62 67 62 59 57 61 59 60 67 66 71 64 65 63 62 66 64 65 66 59 56 60 61 61 60 59 59 58 59 59 59 51 44 39 40 42 42 44 44 54 57 54 54 54 54 53 53 53 54 54 55 55
65 65 64 63 62 63 65 66 67 64 68 68 65 64 65 65 62 65 64 59 61 61 61 62 62 59 61 55 56 56 60 61 60 61 65 60 58 58 58 61 60 65 66 66 64 62 65 65 64 64 65 62 62 59 60 62 58 58 59 57 60 61 61 59 59 54 47 38 39 37 39 42 43 48 51 51 51 53 52 51 52 53 54 54 54
65 66 64 64 63 64 66 67 67 67 67 67 66 65 65 66 65 62 60 61 64 60 61 61 61 62 62 54 54 61 62 60 60 61 67 62 60 57 58 61 62 65 64 65 62 61 65 65 63 64 66 64 60 61 60 61 56 54 55 57 60 59 61 60 56 56 54 40 40 37 36 43 40 46 50 50 51 52 51 51 50 50 51 54 54
64 66 64 64 64 64 65 67 67 66 66 66 64 61 62 62 61 60 57 62 59 58 61 62 63 59 56 54 54 58 58 58 61 61 61 61 61 60 59 60 60 64 63 62 63 62 63 63 64 60 62 63 61 65 61 62 62 60 59 59 59 59 55 55 52 43 48 42 42 49 40 42 45 41 44 48 48 48 49 50 52 47 47 52 53
64 65 64 64 64 63 65 65 66 65 64 62 61 60 60 59 63 59 62 59 61 61 59 65 59 60 57 51 54 61 58 59 59 56 58 58 61 60 59 61 61 62 62 62 64 63 64 64 63 64 63 63 59 62 60 61 61 63 62 59 61 58 57 54 49 47 45 47 48 46 50 43 42 44 40 47 47 47 49 49 49 48 46 48 51
64 65 65 64 63 62 63 64 65 65 64 64 63 65 62 61 60 60 59 57 57 61 58 59 60 54 60 55 61 59 58 59 62 59 61 60 59 58 58 63 62 61 61 62 61 62 62 64 62 62 60 59 60 58 61 61 60 59 59 60 59 60 59 58 52 46 44 45 47 45 50 38 40 40 47 44 46 46 46 49 50 47 43 47 47
62 63 63 64 64 63 64 65 65 64 64 64 64 64 65 64 64 62 65 59 58 59 58 59 55 53 57 56 56 59 58 53 52 54 52 55 59 61 61 63 61 61 61 62 63 61 62 62 63 62 61 57 57 59 60 59 60 60 60 57 55 55 57 57 55 50 48 45 44 43 44 42 40 39 45 43 44 40 37 42 45 44 44 43 44
64 62 63 64 63 65 65 66 65 64 64 64 64 64 66 64 65 62 62 63 62 63 61 60 57 56 58 61 56 56 59 51 49 47 46 51 58 63 63 62 63 62 62 61 62 59 61 63 62 61 61 58 54 54 57 61 60 60 55 53 56 54 53 54 55 54 50 47 42 43 44 42 41 39 41 40 42 44 42 41 43 46 45 43 42
62 63 64 63 61 62 65 65 64 65 64 65 64 64 65 64 64 63 63 66 63 65 60 59 57 58 60 60 55 55 53 53 58 54 49 58 59 64 61 61 64 64 62 62 61 61 58 59 59 60 60 58 56 61 62 59 59 62 60 58 54 53 52 53 54 55 51 45 44 41 45 43 42 40 40 39 40 42 42 42 42 46 50 47 48
62 62 62 63 63 63 62 65 65 64 63 64 64 64 64 65 63 62 61 61 62 63 59 58 57 54 50 54 52 51 51 56 54 58 48 56 58 60 62 59 62 63 63 62 60 59 57 56 55 59 59 61 60 60 59 61 62 63 62 61 60 57 57 56 54 54 53 49 43 41 45 44 43 42 38 38 37 38 43 44 43 48 48 48 45
61 63 63 64 62 63 63 64 64 64 63 63 63 65 64 63 61 59 59 60 60 58 61 62 61 61 60 65 56 57 54 55 56 54 58 59 59 62 61 60 57 63 61 61 61 60 55 51 54 56 56 60 59 59 58 60 60 60 56 57 58 60 57 57 55 52 52 52 49 49 43 42 42 42 38 37 37 39 41 39 41 41 45 45 45
64 66 65 64 66 64 64 65 64 64 61 62 61 64 63 62 62 59 60 58 57 60 58 60 63 63 62 59 60 59 54 56 56 55 58 55 56 59 59 61 57 57 58 58 59 59 60 55 60 61 61 56 61 59 59 59 59 58 56 55 54 53 52 51 52 49 49 48 53 47 43 45 45 44 42 39 38 39 42 41 37 37 42 42 44
65 65 65 64 65 63 65 64 66 63 64 62 61 60 63 62 62 61 62 60 58 59 58 58 57 60 60 67 62 60 66 56 58 57 55 53 58 54 55 55 58 57 56 56 57 54 57 60 62 61 60 61 58 64 62 58 58 57 60 58 52 52 49 49 48 49 49 45 46 43 46 44 45 48 46 42 40 41 41 42 38 38 42 42 41
66 66 66 65 63 64 64 65 64 63 63 63 62 60 61 62 63 62 60 60 59 58 58 57 59 60 57 63 63 63 61 60 60 52 55 55 57 59 50 46 54 55 54 56 59 55 58 60 60 61 61 61 64 62 63 61 59 60 57 57 61 57 54 51 51 49 46 46 42 39 39 42 45 45 50 44 41 38 40 44 40 38 40 43 41
64 64 64 63 65 65 64 64 63 62 62 62 61 61 61 60 60 59 58 57 53 57 58 59 60 58 58 57 59 60 59 61 58 57 54 54 57 57 56 50 52 56 57 53 56 59 60 60 60 59 60 59 59 60 60 59 60 60 57 57 59 57 55 52 53 53 52 50 44 39 37 35 34 41 46 45 41 40 39 42 39 37 39 41 42